View from above orbital plane
|
View from above satellite
|
Ground track
|
The orbit data is extracted from the following two-line orbital elements,
1 13553U 82092B 21110.52518387 .00000120 00000-0 11310-4 0 9995
2 13553 82.5718 6.4657 0022965 87.1720 328.6791 14.84269839 64119
Epoch (UTC): | 20 April 2021 12:36:15 |
Eccentricity: | 0.0022965 |
inclination: | 82.5718° |
perigee height: | 600 km |
apogee height: | 632 km |
right ascension of ascending node: | 6.4657° |
argument of perigee: | 87.1720° |
revolutions per day: | 14.84269839 |
mean anomaly at epoch: | 328.6791° |
orbit number at epoch: | 6411 |
The dashed part of the orbit path shows where the satellite is in the earth's shadow,
|
|